Weather Service Report


567 
ASUS43 KOAX 011710
RWRNE 

WEATHER ROUNDUP FOR NEBRASKA
NATIONAL WEATHER SERVICE OMAHA NE
1100 AM CST SUN FEB 01 2015

NOTES: SATELLITE DATA IS BEING USED TO AUGMENT CLOUD COVER ABOVE
       12000 FEET.
       "FAIR" INDICATES FEW OR NO CLOUDS BELOW 12,000 FEET WITH NO
       SIGNIFICANT WEATHER AND/OR OBSTRUCTIONS TO VISIBILITY.

  * THESE STATIONS DO NOT REPORT WEATHER SUCH AS RAIN...SNOW OR FOG.
   
NEZ001>004-019>022-054>056-011800-
NEBRASKA PANHANDLE
  
CITY           SKY/WX    TMP DP  RH WIND       PRES   REMARKS
SCOTTSBLUFF    CLOUDY    17   8  67 NW23G29   30.27R WCI  -1          
ALLIANCE       CLOUDY     7   0  73 N15       30.25R WCI -10          
CHADRON        LGT SNOW   5  -1  76 NE9       30.37R WCI  -9          
KIMBALL        PTSUNNY   17  10  72 N25G32    30.16R WCI  -1          
SIDNEY         CLOUDY    12   6  77 N18       30.22R WCI  -6          
$$
 
NEZ057>060-069>072-079>082-011800-
SOUTHWEST NEBRASKA
  
CITY           SKY/WX    TMP DP  RH WIND       PRES   REMARKS
NORTH PLATTE   CLOUDY     8   0  69 N24G32    30.26R WCI -13          
IMPERIAL       MOSUNNY   13   5  70 N29G38    30.26R BLWGSNOWWCI  -8  
LEXINGTON      CLOUDY    10   5  78 N29G38    30.23R HAZE    WCI -11  
MCCOOK         MOSUNNY   13   3  64 NW30      30.25R WCI  -8          
OGALLALA       SUNNY     11   4  73 N21G33    30.28R WCI  -8          
$$
 
NEZ005>010-023>029-035>040-094-011800-
NORTH CENTRAL NEBRASKA
  
CITY           SKY/WX    TMP DP  RH WIND       PRES   REMARKS
VALENTINE      LGT SNOW   2  -5  72 N22       30.33R WCI -20          
AINSWORTH      LGT SNOW   1  -4  78 N23G30    30.30R VSB 1   WCI -22  
BROKEN BOW     LGT SNOW   6   0  76 N28       30.22R VSB 1   WCI -17  
O'NEILL        LGT SNOW   4   0  81 N26G35    30.27R WCI -19          
ORD            LGT SNOW   6  -1  73 NW24G32   30.23R VSB 3/4 WCI -16  
THEDFORD       CLOUDY     5  -1  76 N21G32    30.27R HAZE    WCI -15  
$$
 
NEZ041-046>049-061>064-073>077-083>087-011800-
SOUTH CENTRAL NEBRASKA
  
CITY           SKY/WX    TMP DP  RH WIND       PRES   REMARKS
GRAND ISLAND   BLWGSNOW   7   3  84 N30G40    30.18R VSB 1/4 WCI -16  
AURORA         SNOW       8   5  86 N24G36    30.15R VSB 1/2 WCI -13  
HASTINGS       HVY SNOW   9   4  80 N32G40    30.15R VSB 1/4 WCI -14  
HEBRON         LGT SNOW  11   6  81 N17G24    30.12R VSB 3/4 WCI  -6  
HOLDREGE       LGT SNOW  10   5  80 N25G36    30.18R VSB 1   WCI -11  
KEARNEY *      CLOUDY     9   3  78 N29G38    30.18R WCI -14          
YORK           LGT SNOW   9   5  85 N22G29    30.13R VSB 3/4 WCI -11  
$$
 
NEZ011>018-030>034-042>045-011800-
NORTHEAST NEBRASKA
  
CITY           SKY/WX    TMP DP  RH WIND       PRES   REMARKS
NORFOLK        SNOW       5   1  83 NW31G41   30.18R VSB 1/2 WCI -19  
ALBION         LGT SNOW   5  -1  74 N23G35    30.19R VSB 3/4 WCI -16  
BLAIR          SNOW      18  14  85 N26G45    30.01R VSB 1/2 WCI  -1  
FREMONT        LGT SNOW  15  12  87 N21G30    30.10R VSB 1   WCI  -3  
TEKAMAH        HVY SNOW  17  12  80 N36G43    30.10R VSB 1/4 WCI  -4  
WAYNE          LGT SNOW   9   4  80 N24G33    30.18R WCI -12          
$$

NEZ050>053-065>068-078-088>093-011800-
SOUTHEAST NEBRASKA
  
CITY           SKY/WX    TMP DP  RH WIND       PRES   REMARKS
LINCOLN        SNOW      15  10  80 N31G39    30.08R VSB 1/2 WCI  -6  
OMAHA EPPLEY   SNOW      19  16  88 N30G38    30.02R VSB 1/2 WCI   0  
BEATRICE       LGT SNOW  15  11  85 NW20      30.04R VSB 3/4 WCI  -2  
FALLS CITY     LGT SNOW  24  20  84 NW21G33   29.91R VSB 3/4 WCI   9  
NEBRASKA CITY  LGT SNOW  21  19  92 N22G28    29.95R VSB 1   WCI   5  
PLATTSMOUTH    LGT SNOW  20  16  85 NW21G26   29.97R VSB 1   WCI   4  
$$

NEZ044-045-051>053-067-011800-
OMAHA AREA
  
CITY           SKY/WX    TMP DP  RH WIND       PRES   REMARKS
OMAHA EPPLEY   SNOW      19  16  88 N30G38    30.02R VSB 1/2 WCI   0  
BLAIR          SNOW      18  14  85 N26G45    30.01R VSB 1/2 WCI  -1  
FREMONT        LGT SNOW  15  12  87 N21G30    30.10R VSB 1   WCI  -3  
MILLARD        LGT SNOW  19  15  82 NW6       30.03R VSB 1   WCI  11  
PLATTSMOUTH    LGT SNOW  20  16  85 NW21G26   29.97R VSB 1   WCI   4  
WAHOO          LGT SNOW  14  10  83 N35       30.07R VSB 3/4 WCI  -8  
$$

Return to Home page


Western Regional Climate Center, wrcc@dri.edu